Location: Les Coudrans
(46.1056°N, 1.1158°W)
Time: 20:56:12
(UTC+00:00)

Cosmos 1844 - Pass Details

Date: 03 March 2021
Orbit: 823 x 868 km, 70.9° (Epoch: 22 April)

Event Time Altitude Azimuth Distance (km) Brightness Sun altitude
Rises 18:32:36 0° 337° (NNW) 3,461 7.2 -7.5°
Reaches altitude 10° 18:35:17 10° 346° (NNW) 2,516 6.3 -8.0°
Maximum altitude 18:40:37 36° 53° (NE) 1,328 4.4 -8.9°
Drops below altitude 10° 18:45:51 10° 120° (ESE) 2,481 5.6 -9.8°
Enters shadow 18:46:28 - 122° (ESE) 2,690 5.8 -9.9°
